"Sample Date","Sample Time","Sample Value","Units","Flow Rate","Laser Status","Micron Size 0","Counts/Channel 0","Micron Size 1","Counts/Channel 1","Micron Size 2","Counts/Channel 2","Micron Size 3","Counts/Channel 3","Micron Size 4","Counts/Channel 4","Micron Size 5","Counts/Channel 5","Micron Size 6","Counts/Channel 6","Micron Size 7","Counts/Channel 7","Micron Size 8","Counts/Channel 8","Micron Size 9","Counts/Channel 9","Micron Size 10","Counts/Channel 10","Micron Size 11","Counts/Channel 11","Micron Size 12","Counts/Channel 12","Micron Size 13","Counts/Channel 13","Micron Size 14","Counts/Channel 14","Micron Size 15","Counts/Channel 15","Micron Size 16","Counts/Channel 16","Micron Size 17","Counts/Channel 17","Micron Size 18","Counts/Channel 18","Micron Size 19","Counts/Channel 19","Micron Size 20","Counts/Channel 20","Micron Size 21","Counts/Channel 21","Micron Size 22","Counts/Channel 22","Micron Size 23","Counts/Channel 23","Micron Size 24","Counts/Channel 24","Micron Size 25","Counts/Channel 25","Micron Size 26","Counts/Channel 26","Micron Size 27","Counts/Channel 27","Micron Size 28","Counts/Channel 28","Micron Size 29","Counts/Channel 29","Micron Size 30","Counts/Channel 30","Micron Size 31","Counts/Channel 31"
"03/04/08","03:00:05",124908.000,"cc",28284.555,1,0.100,103146.000,0.200,13930.000,0.300,3544.000,0.500,3079.000,1.000,1209.000,5.000,0
"03/04/08","03:00:11",115806.000,"cc",28321.568,1,0.100,94878.000,0.200,12904.000,0.300,3687.000,0.500,3161.000,1.000,1176.000,5.000,0
"03/04/08","03:00:17",113196.000,"cc",28370.068,1,0.100,94304.000,0.200,12351.000,0.300,3055.000,0.500,2572.000,1.000,914.000,5.000,0
"03/04/08","03:00:23",201426.000,"cc",28345.307,1,0.100,170127.000,0.200,23911.000,0.300,3709.000,0.500,2667.000,1.000,1012.000,5.000,0
"03/04/08","03:00:29",140963.000,"cc",28264.424,1,0.100,118882.000,0.200,15687.000,0.300,3046.000,0.500,2473.000,1.000,875.000,5.000,0
"03/04/08","03:00:35",245941.000,"cc",28287.400,1,0.100,207292.000,0.200,30746.000,0.300,4039.000,0.500,2848.000,1.000,1016.000,5.000,0
"03/04/08","03:00:41",168920.000,"cc",28333.525,1,0.100,142127.000,0.200,19683.000,0.300,3361.000,0.500,2762.000,1.000,987.000,5.000,0
"03/04/08","03:00:47",130881.000,"cc",28299.408,1,0.100,109617.000,0.200,14622.000,0.300,3129.000,0.500,2597.000,1.000,916.000,5.000,0
"03/04/08","03:00:53",149966.000,"cc",28331.631,1,0.100,126103.000,0.200,17132.000,0.300,3203.000,0.500,2593.000,1.000,935.000,5.000,0
"03/04/08","03:00:59",207546.000,"cc",28306.566,1,0.100,174676.000,0.200,25400.000,0.300,3801.000,0.500,2673.000,1.000,996.000,5.000,0
"03/04/08","03:01:05",205486.000,"cc",28337.732,1,0.100,173176.000,0.200,24776.000,0.300,3800.000,0.500,2777.000,1.000,957.000,5.000,0
"03/04/08","03:01:11",194121.000,"cc",28344.256,1,0.100,165760.000,0.200,22715.000,0.300,2768.000,0.500,2087.000,1.000,791.000,5.000,0
"03/04/08","03:01:17",191867.000,"cc",28308.803,1,0.100,163103.000,0.200,22555.000,0.300,3028.000,0.500,2346.000,1.000,835.000,5.000,0
"03/04/08","03:01:23",187403.000,"cc",28303.295,1,0.100,158738.000,0.200,22162.000,0.300,3133.000,0.500,2501.000,1.000,869.000,5.000,0
"03/04/08","03:01:29",124660.000,"cc",28330.752,1,0.100,105372.000,0.200,13715.000,0.300,2528.000,0.500,2225.000,1.000,820.000,5.000,0
"03/04/08","03:01:35",319482.000,"cc",28285.713,1,0.100,264325.000,0.200,47681.000,0.300,4439.000,0.500,2217.000,1.000,820.000,5.000,0
"03/04/08","03:01:41",361536.000,"cc",28289.822,1,0.100,299591.000,0.200,53677.000,0.300,4820.000,0.500,2499.000,1.000,949.000,5.000,0
"03/04/08","03:01:47",260485.000,"cc",28282.559,1,0.100,219365.000,0.200,33759.000,0.300,3888.000,0.500,2531.000,1.000,942.000,5.000,0
"03/04/08","03:01:53",246422.000,"cc",28327.455,1,0.100,207861.000,0.200,31132.000,0.300,3832.000,0.500,2649.000,1.000,948.000,5.000,0
"03/04/08","03:01:59",236466.000,"cc",28382.557,1,0.100,199788.000,0.200,29286.000,0.300,3819.000,0.500,2624.000,1.000,949.000,5.000,0
"03/04/08","03:02:05",223290.000,"cc",28241.529,1,0.100,187718.000,0.200,27975.000,0.300,3928.000,0.500,2761.000,1.000,908.000,5.000,0
"03/04/08","03:02:11",173176.000,"cc",28370.082,1,0.100,144950.000,0.200,20663.000,0.300,3751.000,0.500,2770.000,1.000,1042.000,5.000,0
"03/04/08","03:02:17",164279.000,"cc",28338.475,1,0.100,137843.000,0.200,19249.000,0.300,3655.000,0.500,2610.000,1.000,922.000,5.000,0
"03/04/08","03:02:23",148438.000,"cc",28349.254,1,0.100,124298.000,0.200,17100.000,0.300,3308.000,0.500,2759.000,1.000,973.000,5.000,0
"03/04/08","03:02:29",144830.000,"cc",28335.268,1,0.100,120216.000,0.200,16967.000,0.300,3608.000,0.500,2957.000,1.000,1082.000,5.000,0
"03/04/08","03:02:35",180135.000,"cc",28285.033,1,0.100,149958.000,0.200,22096.000,0.300,3936.000,0.500,3036.000,1.000,1109.000,5.000,0
"03/04/08","03:02:41",158216.000,"cc",28298.631,1,0.100,129990.000,0.200,19181.000,0.300,4330.000,0.500,3460.000,1.000,1255.000,5.000,0
"03/04/08","03:02:47",116913.000,"cc",28321.885,1,0.100,96406.000,0.200,13324.000,0.300,3245.000,0.500,2889.000,1.000,1049.000,5.000,0
"03/04/08","03:02:53",108197.000,"cc",28280.535,1,0.100,88875.000,0.200,12254.000,0.300,3313.000,0.500,2727.000,1.000,1028.000,5.000,0
"03/04/08","03:02:59",90403.000,"cc",28352.416,1,0.100,74015.000,0.200,9927.000,0.300,2874.000,0.500,2600.000,1.000,987.000,5.000,0
"03/04/08","03:03:05",162068.000,"cc",28328.260,1,0.100,135002.000,0.200,19361.000,0.300,3747.000,0.500,2920.000,1.000,1038.000,5.000,0
"03/04/08","03:03:11",103254.000,"cc",28305.096,1,0.100,87297.000,0.200,10904.000,0.300,2332.000,0.500,1980.000,1.000,741.000,5.000,0
"03/04/08","03:03:17",108684.000,"cc",28290.928,1,0.100,91038.000,0.200,11727.000,0.300,2757.000,0.500,2310.000,1.000,852.000,5.000,0
"03/04/08","03:03:23",77580.000,"cc",28298.174,1,0.100,65355.000,0.200,7559.000,0.300,2048.000,0.500,1880.000,1.000,738.000,5.000,0
"03/04/08","03:03:29",83563.000,"cc",28337.799,1,0.100,69505.000,0.200,8554.000,0.300,2497.000,0.500,2190.000,1.000,817.000,5.000,0
"03/04/08","03:03:35",108449.000,"cc",28300.768,1,0.100,90535.000,0.200,11893.000,0.300,2753.000,0.500,2329.000,1.000,939.000,5.000,0
"03/04/08","03:03:41",120754.000,"cc",28379.555,1,0.100,101556.000,0.200,13138.000,0.300,2869.000,0.500,2313.000,1.000,878.000,5.000,0
"03/04/08","03:03:47",76617.000,"cc",28344.723,1,0.100,63218.000,0.200,7860.000,0.300,2434.000,0.500,2251.000,1.000,854.000,5.000,0
"03/04/08","03:03:53",74341.000,"cc",28347.998,1,0.100,61193.000,0.200,7516.000,0.300,2475.000,0.500,2278.000,1.000,879.000,5.000,0
"03/04/08","03:03:59",83580.000,"cc",28282.762,1,0.100,68513.000,0.200,8985.000,0.300,2752.000,0.500,2462.000,1.000,868.000,5.000,0
"03/04/08","03:04:05",104306.000,"cc",28253.539,1,0.100,86327.000,0.200,11362.000,0.300,3023.000,0.500,2606.000,1.000,988.000,5.000,0
"03/04/08","03:04:11",84249.000,"cc",28344.852,1,0.100,68157.000,0.200,9287.000,0.300,3063.000,0.500,2759.000,1.000,983.000,5.000,0
"03/04/08","03:04:17",91048.000,"cc",28359.002,1,0.100,72899.000,0.200,10448.000,0.300,3443.000,0.500,3105.000,1.000,1153.000,5.000,0
"03/04/08","03:04:23",81372.000,"cc",28310.623,1,0.100,67054.000,0.200,8365.000,0.300,2633.000,0.500,2379.000,1.000,941.000,5.000,0
"03/04/08","03:04:29",105647.000,"cc",28282.332,1,0.100,88566.000,0.200,11188.000,0.300,2680.000,0.500,2353.000,1.000,860.000,5.000,0
"03/04/08","03:04:35",101761.000,"cc",28366.494,1,0.100,84656.000,0.200,10947.000,0.300,2782.000,0.500,2448.000,1.000,928.000,5.000,0
"03/04/08","03:04:41",100521.000,"cc",28319.326,1,0.100,82403.000,0.200,11186.000,0.300,3136.000,0.500,2756.000,1.000,1040.000,5.000,0
"03/04/08","03:04:47",110659.000,"cc",28241.840,1,0.100,92374.000,0.200,12141.000,0.300,2902.000,0.500,2396.000,1.000,846.000,5.000,0
"03/04/08","03:04:53",107672.000,"cc",28278.572,1,0.100,90023.000,0.200,11750.000,0.300,2736.000,0.500,2296.000,1.000,867.000,5.000,0
"03/04/08","03:04:59",126909.000,"cc",28398.836,1,0.100,107681.000,0.200,13807.000,0.300,2584.000,0.500,2111.000,1.000,726.000,5.000,0
"03/04/08","03:05:05",158331.000,"cc",28304.178,1,0.100,134565.000,0.200,17768.000,0.300,2908.000,0.500,2302.000,1.000,788.000,5.000,0
"03/04/08","03:05:11",86439.000,"cc",28311.606,1,0.100,72463.000,0.200,8834.000,0.300,2305.000,0.500,2035.000,1.000,802.000,5.000,0
"03/04/08","03:05:17",127264.000,"cc",28338.680,1,0.100,106353.000,0.200,14349.000,0.300,3065.000,0.500,2584.000,1.000,913.000,5.000,0
"03/04/08","03:05:23",120328.000,"cc",28290.219,1,0.100,99883.000,0.200,13303.000,0.300,3353.000,0.500,2750.000,1.000,1038.000,5.000,1.000
"03/04/08","03:05:29",122089.000,"cc",28329.695,1,0.100,101657.000,0.200,13826.000,0.300,3027.000,0.500,2608.000,1.000,971.000,5.000,0
"03/04/08","03:05:35",95947.000,"cc",28281.979,1,0.100,79660.000,0.200,10228.000,0.300,2712.000,0.500,2449.000,1.000,898.000,5.000,0
"03/04/08","03:05:41",106697.000,"cc",28303.824,1,0.100,88519.000,0.200,11738.000,0.300,2931.000,0.500,2592.000,1.000,917.000,5.000,0
"03/04/08","03:05:47",196759.000,"cc",28327.045,1,0.100,166998.000,0.200,23674.000,0.300,3078.000,0.500,2185.000,1.000,824.000,5.000,0
"03/04/08","03:05:53",190485.000,"cc",28329.293,1,0.100,162503.000,0.200,22386.000,0.300,2887.000,0.500,2009.000,1.000,700.000,5.000,0
"03/04/08","03:05:59",172855.000,"cc",28252.488,1,0.100,147478.000,0.200,19528.000,0.300,2857.000,0.500,2186.000,1.000,806.000,5.000,0
"03/04/08","03:06:05",143630.000,"cc",28321.100,1,0.100,121233.000,0.200,16161.000,0.300,2966.000,0.500,2412.000,1.000,858.000,5.000,0
"03/04/08","03:06:11",129745.000,"cc",28352.535,1,0.100,108657.000,0.200,14648.000,0.300,3016.000,0.500,2498.000,1.000,926.000,5.000,0
"03/04/08","03:06:17",216370.000,"cc",28329.588,1,0.100,181136.000,0.200,27107.000,0.300,4198.000,0.500,2939.000,1.000,990.000,5.000,0
"03/04/08","03:06:23",175626.000,"cc",28319.822,1,0.100,148149.000,0.200,20593.000,0.300,3368.000,0.500,2556.000,1.000,960.000,5.000,0
"03/04/08","03:06:29",123806.000,"cc",28331.953,1,0.100,105096.000,0.200,13545.000,0.300,2318.000,0.500,2074.000,1.000,773.000,5.000,0
"03/04/08","03:06:35",131392.000,"cc",28299.068,1,0.100,111159.000,0.200,14502.000,0.300,2654.000,0.500,2226.000,1.000,851.000,5.000,0
"03/04/08","03:06:41",180269.000,"cc",28242.035,1,0.100,152070.000,0.200,21436.000,0.300,3438.000,0.500,2421.000,1.000,904.000,5.000,0
"03/04/08","03:06:47",205847.000,"cc",28344.369,1,0.100,172799.000,0.200,26114.000,0.300,3670.000,0.500,2378.000,1.000,886.000,5.000,0
"03/04/08","03:06:53",256644.000,"cc",28327.563,1,0.100,214879.000,0.200,34398.000,0.300,3968.000,0.500,2501.000,1.000,898.000,5.000,0
"03/04/08","03:06:59",268851.000,"cc",28320.848,1,0.100,224154.000,0.200,36903.000,0.300,4159.000,0.500,2688.000,1.000,947.000,5.000,0
"03/04/08","03:07:05",268679.000,"cc",28345.014,1,0.100,223544.000,0.200,36722.000,0.300,4566.000,0.500,2843.000,1.000,1004.000,5.000,0
"03/04/08","03:07:11",232890.000,"cc",28369.586,1,0.100,194449.000,0.200,30932.000,0.300,3931.000,0.500,2589.000,1.000,989.000,5.000,0
"03/04/08","03:07:17",177462.000,"cc",28343.328,1,0.100,146502.000,0.200,22584.000,0.300,4192.000,0.500,3045.000,1.000,1139.000,5.000,0
"03/04/08","03:07:23",217286.000,"cc",28270.668,1,0.100,181263.000,0.200,27689.000,0.300,4236.000,0.500,2941.000,1.000,1157.000,5.000,0
"03/04/08","03:07:29",207807.000,"cc",28279.902,1,0.100,174511.000,0.200,25844.000,0.300,3697.000,0.500,2761.000,1.000,994.000,5.000,0
"03/04/08","03:07:35",262978.000,"cc",28310.467,1,0.100,220667.000,0.200,34320.000,0.300,4229.000,0.500,2786.000,1.000,976.000,5.000,0
"03/04/08","03:07:41",199831.000,"cc",28304.764,1,0.100,168905.000,0.200,23913.000,0.300,3464.000,0.500,2606.000,1.000,943.000,5.000,0
"03/04/08","03:07:47",103419.000,"cc",28304.213,1,0.100,86626.000,0.200,11071.000,0.300,2634.000,0.500,2248.000,1.000,840.000,5.000,0
"03/04/08","03:07:53",104571.000,"cc",28318.529,1,0.100,89194.000,0.200,10551.000,0.300,2208.000,0.500,1869.000,1.000,749.000,5.000,0
"03/04/08","03:07:59",134066.000,"cc",28289.012,1,0.100,114511.000,0.200,14422.000,0.300,2466.000,0.500,1940.000,1.000,727.000,5.000,0
"03/04/08","03:08:05",162737.000,"cc",28359.779,1,0.100,138225.000,0.200,18585.000,0.300,2845.000,0.500,2207.000,1.000,875.000,5.000,0
"03/04/08","03:08:11",142848.000,"cc",28321.463,1,0.100,118468.000,0.200,16562.000,0.300,3737.000,0.500,2992.000,1.000,1089.000,5.000,0
"03/04/08","03:08:17",121002.000,"cc",28317.557,1,0.100,100362.000,0.200,13657.000,0.300,3222.000,0.500,2756.000,1.000,1005.000,5.000,0
"03/04/08","03:08:23",139911.000,"cc",28293.316,1,0.100,116642.000,0.200,16136.000,0.300,3454.000,0.500,2703.000,1.000,976.000,5.000,0
"03/04/08","03:08:29",125232.000,"cc",28278.629,1,0.100,103706.000,0.200,14260.000,0.300,3461.000,0.500,2782.000,1.000,1022.000,5.000,1.000
"03/04/08","03:08:35",227481.000,"cc",28333.611,1,0.100,192598.000,0.200,27765.000,0.300,3621.000,0.500,2585.000,1.000,912.000,5.000,0
"03/04/08","03:08:41",241980.000,"cc",28385.143,1,0.100,205635.000,0.200,30074.000,0.300,3323.000,0.500,2163.000,1.000,785.000,5.000,0
"03/04/08","03:08:47",212121.000,"cc",28346.625,1,0.100,179479.000,0.200,26751.000,0.300,3062.000,0.500,2031.000,1.000,798.000,5.000,0
"03/04/08","03:08:53",201868.000,"cc",28336.986,1,0.100,172511.000,0.200,23619.000,0.300,2925.000,0.500,2058.000,1.000,755.000,5.000,0
"03/04/08","03:08:59",204472.000,"cc",28249.527,1,0.100,174126.000,0.200,23988.000,0.300,3170.000,0.500,2350.000,1.000,838.000,5.000,0
"03/04/08","03:09:05",193859.000,"cc",28354.375,1,0.100,164017.000,0.200,23027.000,0.300,3377.000,0.500,2508.000,1.000,930.000,5.000,0
"03/04/08","03:09:11",165188.000,"cc",28384.404,1,0.100,140386.000,0.200,18598.000,0.300,2955.000,0.500,2367.000,1.000,882.000,5.000,0
"03/04/08","03:09:17",179556.000,"cc",28266.568,1,0.100,150803.000,0.200,21219.000,0.300,3680.000,0.500,2843.000,1.000,1011.000,5.000,0
"03/04/08","03:09:23",147664.000,"cc",28326.781,1,0.100,123863.000,0.200,16912.000,0.300,3366.000,0.500,2588.000,1.000,935.000,5.000,0
"03/04/08","03:09:29",159488.000,"cc",28342.701,1,0.100,133769.000,0.200,18586.000,0.300,3350.000,0.500,2766.000,1.000,1017.000,5.000,0
"03/04/08","03:09:35",159678.000,"cc",28246.078,1,0.100,135781.000,0.200,17864.000,0.300,2873.000,0.500,2288.000,1.000,872.000,5.000,0
"03/04/08","03:09:41",143484.000,"cc",28272.481,1,0.100,121540.000,0.200,15906.000,0.300,2804.000,0.500,2343.000,1.000,891.000,5.000,0
"03/04/08","03:09:47",182631.000,"cc",28332.691,1,0.100,154528.000,0.200,21520.000,0.300,3320.000,0.500,2494.000,1.000,769.000,5.000,0
"03/04/08","03:09:53",176384.000,"cc",28298.275,1,0.100,149357.000,0.200,20482.000,0.300,3178.000,0.500,2475.000,1.000,892.000,5.000,0
"03/04/08","03:09:59",187077.000,"cc",28327.379,1,0.100,158098.000,0.200,22128.000,0.300,3306.000,0.500,2616.000,1.000,929.000,5.000,0
"03/04/08","03:10:05",154889.000,"cc",28350.201,1,0.100,130785.000,0.200,17423.000,0.300,3208.000,0.500,2571.000,1.000,902.000,5.000,0
"03/04/08","03:10:11",185122.000,"cc",28266.004,1,0.100,155039.000,0.200,21959.000,0.300,3914.000,0.500,3086.000,1.000,1124.000,5.000,0
"03/04/08","03:10:17",183455.000,"cc",28313.832,1,0.100,154906.000,0.200,21679.000,0.300,3341.000,0.500,2559.000,1.000,970.000,5.000,0
"03/04/08","03:10:23",234427.000,"cc",28306.332,1,0.100,198174.000,0.200,29330.000,0.300,3552.000,0.500,2521.000,1.000,850.000,5.000,0
"03/04/08","03:10:29",168873.000,"cc",28417.348,1,0.100,142830.000,0.200,19688.000,0.300,3232.000,0.500,2339.000,1.000,784.000,5.000,0
"03/04/08","03:10:35",247693.000,"cc",28286.539,1,0.100,210034.000,0.200,31075.000,0.300,3591.000,0.500,2195.000,1.000,798.000,5.000,0
"03/04/08","03:10:41",209283.000,"cc",28305.338,1,0.100,177442.000,0.200,25232.000,0.300,3439.000,0.500,2359.000,1.000,811.000,5.000,0
"03/04/08","03:10:47",246993.000,"cc",28263.182,1,0.100,208157.000,0.200,31343.000,0.300,3999.000,0.500,2576.000,1.000,918.000,5.000,0
"03/04/08","03:10:53",238248.000,"cc",28298.201,1,0.100,199540.000,0.200,30359.000,0.300,4344.000,0.500,2930.000,1.000,1075.000,5.000,0
"03/04/08","03:10:59",238978.000,"cc",28313.463,1,0.100,202452.000,0.200,29631.000,0.300,3552.000,0.500,2441.000,1.000,902.000,5.000,0
"03/04/08","03:11:05",219719.000,"cc",28366.508,1,0.100,185133.000,0.200,27014.000,0.300,3999.000,0.500,2692.000,1.000,881.000,5.000,0
"03/04/08","03:11:11",254151.000,"cc",28335.775,1,0.100,214614.000,0.200,32768.000,0.300,3621.000,0.500,2300.000,1.000,848.000,5.000,0
"03/04/08","03:11:17",226881.000,"cc",28300.504,1,0.100,190597.000,0.200,29344.000,0.300,3620.000,0.500,2406.000,1.000,914.000,5.000,0
"03/04/08","03:11:23",307748.000,"cc",28349.682,1,0.100,256096.000,0.200,43197.000,0.300,4748.000,0.500,2691.000,1.000,1016.000,5.000,0
"03/04/08","03:11:29",220307.000,"cc",28263.871,1,0.100,185224.000,0.200,27681.000,0.300,3857.000,0.500,2595.000,1.000,950.000,5.000,0
"03/04/08","03:11:35",190142.000,"cc",28343.148,1,0.100,158819.000,0.200,23450.000,0.300,4013.000,0.500,2906.000,1.000,954.000,5.000,0
"03/04/08","03:11:41",164705.000,"cc",28343.643,1,0.100,137938.000,0.200,19646.000,0.300,3490.000,0.500,2652.000,1.000,979.000,5.000,0
"03/04/08","03:11:47",105648.000,"cc",28318.236,1,0.100,88354.000,0.200,11489.000,0.300,2729.000,0.500,2248.000,1.000,828.000,5.000,0
"03/04/08","03:11:53",183868.000,"cc",28314.961,1,0.100,153710.000,0.200,22644.000,0.300,3781.000,0.500,2758.000,1.000,975.000,5.000,0
"03/04/08","03:11:59",166478.000,"cc",28248.055,1,0.100,139936.000,0.200,20027.000,0.300,3246.000,0.500,2382.000,1.000,887.000,5.000,0
"03/04/08","03:12:05",178993.000,"cc",28315.219,1,0.100,149596.000,0.200,21874.000,0.300,3875.000,0.500,2736.000,1.000,912.000,5.000,0
"03/04/08","03:12:11",247143.000,"cc",28357.693,1,0.100,204566.000,0.200,33563.000,0.300,4757.000,0.500,3146.000,1.000,1109.000,5.000,2.000
"03/04/08","03:12:17",228350.000,"cc",28319.297,1,0.100,190596.000,0.200,29986.000,0.300,4089.000,0.500,2743.000,1.000,936.000,5.000,0
"03/04/08","03:12:23",200810.000,"cc",28279.195,1,0.100,169320.000,0.200,24991.000,0.300,3368.000,0.500,2330.000,1.000,801.000,5.000,0
"03/04/08","03:12:29",267245.000,"cc",28342.139,1,0.100,224884.000,0.200,35861.000,0.300,3610.000,0.500,2148.000,1.000,742.000,5.000,0
"03/04/08","03:12:35",242074.000,"cc",28334.443,1,0.100,204274.000,0.200,31221.000,0.300,3541.000,0.500,2253.000,1.000,785.000,5.000,0
"03/04/08","03:12:41",247195.000,"cc",28302.772,1,0.100,203181.000,0.200,33252.000,0.300,5460.000,0.500,3947.000,1.000,1355.000,5.000,0
"03/04/08","03:12:47",250211.000,"cc",28288.775,1,0.100,207666.000,0.200,33421.000,0.300,4756.000,0.500,3254.000,1.000,1114.000,5.000,0
"03/04/08","03:12:53",225899.000,"cc",28320.762,1,0.100,188178.000,0.200,29520.000,0.300,4204.000,0.500,2931.000,1.000,1066.000,5.000,0
"03/04/08","03:12:59",194798.000,"cc",28346.648,1,0.100,164046.000,0.200,24143.000,0.300,3406.000,0.500,2338.000,1.000,865.000,5.000,0
"03/04/08","03:13:05",224000.000,"cc",28324.842,1,0.100,187796.000,0.200,29448.000,0.300,3558.000,0.500,2357.000,1.000,841.000,5.000,0
"03/04/08","03:13:11",206777.000,"cc",28276.820,1,0.100,174024.000,0.200,26109.000,0.300,3515.000,0.500,2319.000,1.000,810.000,5.000,0
"03/04/08","03:13:17",212938.000,"cc",28388.813,1,0.100,179189.000,0.200,26838.000,0.300,3616.000,0.500,2422.000,1.000,873.000,5.000,0
"03/04/08","03:13:23",227796.000,"cc",28309.076,1,0.100,191845.000,0.200,29405.000,0.300,3476.000,0.500,2241.000,1.000,829.000,5.000,0
"03/04/08","03:13:29",185727.000,"cc",28267.563,1,0.100,157693.000,0.200,22106.000,0.300,3020.000,0.500,2121.000,1.000,787.000,5.000,0
"03/04/08","03:13:35",159733.000,"cc",28329.900,1,0.100,135858.000,0.200,18093.000,0.300,2764.000,0.500,2194.000,1.000,824.000,5.000,0
"03/04/08","03:13:41",309037.000,"cc",28273.773,1,0.100,259721.000,0.200,41403.000,0.300,4368.000,0.500,2562.000,1.000,983.000,5.000,0
"03/04/08","03:13:47",260391.000,"cc",28310.514,1,0.100,218974.000,0.200,33398.000,0.300,4194.000,0.500,2829.000,1.000,996.000,5.000,0
"03/04/08","03:13:53",207812.000,"cc",28288.678,1,0.100,174329.000,0.200,25238.000,0.300,4101.000,0.500,3064.000,1.000,1080.000,5.000,0
"03/04/08","03:13:59",177757.000,"cc",28357.490,1,0.100,147733.000,0.200,21636.000,0.300,4058.000,0.500,3194.000,1.000,1136.000,5.000,0
"03/04/08","03:14:05",209740.000,"cc",28331.504,1,0.100,176834.000,0.200,25840.000,0.300,3582.000,0.500,2518.000,1.000,966.000,5.000,0
"03/04/08","03:14:11",229936.000,"cc",28335.902,1,0.100,194115.000,0.200,28777.000,0.300,3710.000,0.500,2485.000,1.000,849.000,5.000,0
"03/04/08","03:14:17",165012.000,"cc",28308.346,1,0.100,138026.000,0.200,19389.000,0.300,3733.000,0.500,2841.000,1.000,1023.000,5.000,0
"03/04/08","03:14:23",167394.000,"cc",28316.377,1,0.100,138287.000,0.200,20276.000,0.300,4241.000,0.500,3375.000,1.000,1215.000,5.000,0
"03/04/08","03:14:29",115583.000,"cc",28369.668,1,0.100,96093.000,0.200,12861.000,0.300,2947.000,0.500,2672.000,1.000,1010.000,5.000,0
"03/04/08","03:14:35",146461.000,"cc",28298.691,1,0.100,122686.000,0.200,16794.000,0.300,3388.000,0.500,2632.000,1.000,961.000,5.000,0
"03/04/08","03:14:41",157946.000,"cc",28348.500,1,0.100,132672.000,0.200,18258.000,0.300,3312.000,0.500,2660.000,1.000,1044.000,5.000,0
"03/04/08","03:14:47",185729.000,"cc",28254.008,1,0.100,156396.000,0.200,22080.000,0.300,3467.000,0.500,2746.000,1.000,1040.000,5.000,0
"03/04/08","03:14:53",157010.000,"cc",28327.145,1,0.100,130182.000,0.200,18766.000,0.300,3974.000,0.500,2990.000,1.000,1098.000,5.000,0
"03/04/08","03:14:59",129174.000,"cc",28300.367,1,0.100,109116.000,0.200,14200.000,0.300,2779.000,0.500,2276.000,1.000,803.000,5.000,0
"03/04/08","03:15:05",118009.000,"cc",28365.248,1,0.100,99627.000,0.200,12618.000,0.300,2687.000,0.500,2226.000,1.000,851.000,5.000,0
"03/04/08","03:15:11",143341.000,"cc",28245.268,1,0.100,120689.000,0.200,16378.000,0.300,2921.000,0.500,2480.000,1.000,873.000,5.000,0
"03/04/08","03:15:17",160835.000,"cc",28331.035,1,0.100,136212.000,0.200,18332.000,0.300,3051.000,0.500,2369.000,1.000,871.000,5.000,0
"03/04/08","03:15:23",245745.000,"cc",28349.971,1,0.100,207170.000,0.200,31163.000,0.300,3998.000,0.500,2545.000,1.000,869.000,5.000,0
"03/04/08","03:15:29",190547.000,"cc",28314.666,1,0.100,161691.000,0.200,22754.000,0.300,2957.000,0.500,2278.000,1.000,867.000,5.000,0
"03/04/08","03:15:35",182118.000,"cc",28323.133,1,0.100,153150.000,0.200,21879.000,0.300,3510.000,0.500,2643.000,1.000,936.000,5.000,0
"03/04/08","03:15:41",210542.000,"cc",28292.457,1,0.100,176192.000,0.200,26295.000,0.300,4023.000,0.500,2935.000,1.000,1097.000,5.000,0
"03/04/08","03:15:47",217499.000,"cc",28346.109,1,0.100,182033.000,0.200,27637.000,0.300,4015.000,0.500,2803.000,1.000,1011.000,5.000,0
"03/04/08","03:15:53",258805.000,"cc",28304.824,1,0.100,216680.000,0.200,34333.000,0.300,4088.000,0.500,2718.000,1.000,986.000,5.000,0
"03/04/08","03:15:59",264256.000,"cc",28255.203,1,0.100,221481.000,0.200,34824.000,0.300,4211.000,0.500,2733.000,1.000,1007.000,5.000,0
"03/04/08","03:16:05",168885.000,"cc",28309.027,1,0.100,143440.000,0.200,19630.000,0.300,2868.000,0.500,2146.000,1.000,801.000,5.000,0
"03/04/08","03:16:11",193538.000,"cc",28296.772,1,0.100,164421.000,0.200,23436.000,0.300,2893.000,0.500,2026.000,1.000,762.000,5.000,0
"03/04/08","03:16:17",159885.000,"cc",28364.986,1,0.100,135381.000,0.200,18554.000,0.300,2890.000,0.500,2232.000,1.000,828.000,5.000,0
"03/04/08","03:16:23",304088.000,"cc",28343.441,1,0.100,251563.000,0.200,43561.000,0.300,4821.000,0.500,3020.000,1.000,1123.000,5.000,0
"03/04/08","03:16:29",338674.000,"cc",28265.582,1,0.100,279967.000,0.200,49978.000,0.300,5001.000,0.500,2711.000,1.000,1017.000,5.000,0
"03/04/08","03:16:35",326717.000,"cc",28365.027,1,0.100,271966.000,0.200,46883.000,0.300,4430.000,0.500,2536.000,1.000,902.000,5.000,0
"03/04/08","03:16:41",238228.000,"cc",28294.379,1,0.100,200963.000,0.200,30442.000,0.300,3530.000,0.500,2438.000,1.000,855.000,5.000,0